Weather in Chernyahovsk

Russia / Kaliningrad Oblast     54°37′50″N   21°49′10″E
temp.,
°C
wind,
m/s
gust,
m/s
humid.,
%
clouds,
%
prec.,
mm/h
press.,
hPa
HPBL,
m
18 may, tue
tue1823:00+11ne338079 0.0 100440
02:00+10e2288100 0.0 100417
05:00+10ene2294100 0.0 100420
08:00+14ne2381100 0.0 1005338
11:00+17ne346898 0.3 1005995
14:00+18nnw3365100 1.3 10051094
17:00+15nw478599 1.5 1005210
20:00+11wnw488899 1.7 1006196
19 may, wed
wed1923:00+8wnw379462 0.0 1006138
02:00+9wnw489196 0.0 1006246
05:00+8nw4895100 0.0 1007236
08:00+12nw5880100 0.0 1008483
11:00+14wnw6770100 0.0 10081036
14:00+15wnw676840 0.1 10091041
17:00+13nw687322 0.0 1010632
20:00+10wnw48905 0.0 1011265
20 may, thu
thu2023:00+6wnw389688 0.0 1012165
02:00+5w349489 0.0 101366
05:00+5w239590 0.0 101355
08:00+11wnw467997 0.0 1013465
11:00+15nw796399 0.0 1013978
14:00+14nw7959100 0.0 10141166
17:00+13nw79695 0.0 1015998
20:00+9wnw510860 0.0 1016509
21 may, fri
fri2123:00+4wsw410940 0.0 1016214
02:00+4sw389710 0.0 1016161
05:00+4wsw4119713 0.0 1016278
08:00+10w69755 0.0 10161021
11:00+13w696033 0.1 10161896
14:00+15w575414 0.3 10161945
17:00+15sw356427 0.0 10151242
20:00+12s368247 0.2 1015112
22 may, sat
sat2223:00+9s41187100 0.0 1014237
02:00+10s51475100 0.0 1013364
05:00+11s61668100 0.0 1011535
08:00+13sse7157199 0.0 1010663
11:00+17s91568100 0.0 10091452
14:00+16ssw81469100 0.0 10091134
17:00+16sw71283100 1.3 1009778
20:00+12s4896100 5.3 1009249